This is the latest recevied weather packets stored in our database for station/object N7ZAP. If no packets are shown the sender has not sent any weather packets the latest 10 day(s).
| Time | Temp. | Humidity | Pressure | Rain* | Wind** | Luminosity | Snow |
|---|---|---|---|---|---|---|---|
| 1777892893 | 12.22° C | 70% | 1014.1 hPa | 0 mm | - | - | - |
| 1777892590 | 11.67° C | 71% | 1014.2 hPa | 0 mm | - | - | - |
| 1777892286 | 11.67° C | 71% | 1013.9 hPa | 0 mm | - | - | - |
| 1777891982 | 11.11° C | 73% | 1014.1 hPa | 0 mm | - | - | - |
| 1777891680 | 11.67° C | 73% | 1014 hPa | 0 mm | - | - | - |
| 1777891376 | 11.67° C | 73% | 1014 hPa | 0 mm | - | - | - |
| 1777891071 | 11.67° C | 72% | 1014.1 hPa | 0 mm | - | - | - |
| 1777890766 | 11.67° C | 72% | 1013.9 hPa | 0 mm | - | - | - |
| 1777890463 | 11.67° C | 71% | 1014.1 hPa | 0 mm | - | - | - |
| 1777890158 | 12.22° C | 71% | 1014.5 hPa | 0 mm | - | - | - |
| 1777889855 | 12.22° C | 70% | 1014.5 hPa | 0 mm | - | - | - |
| 1777889553 | 12.22° C | 70% | 1014.4 hPa | 0 mm | - | - | - |
| 1777889251 | 12.22° C | 70% | 1014.5 hPa | 0 mm | - | - | - |
| 1777888948 | 12.22° C | 70% | 1014.2 hPa | 0 mm | - | - | - |
| 1777888645 | 12.22° C | 69% | 1014.1 hPa | 0 mm | - | - | - |
| 1777888341 | 12.22° C | 69% | 1014.1 hPa | 0 mm | - | - | - |
| 1777888038 | 12.78° C | 68% | 1014.1 hPa | 0 mm | - | - | - |
| 1777887735 | 12.78° C | 68% | 1014 hPa | 0 mm | - | - | - |
| 1777887432 | 12.78° C | 68% | 1014.1 hPa | 0 mm | - | - | - |
| 1777887127 | 12.78° C | 67% | 1014.1 hPa | 0 mm | - | - | - |
| 1777886823 | 12.78° C | 68% | 1013.9 hPa | 0 mm | - | - | - |
| 1777886519 | 12.78° C | 68% | 1013.9 hPa | 0 mm | - | - | - |
| 1777886217 | 12.78° C | 67% | 1013.9 hPa | 0 mm | - | - | - |
| 1777885915 | 12.78° C | 66% | 1014.1 hPa | 0 mm | - | - | - |
| 1777885613 | 13.33° C | 66% | 1013.9 hPa | 0 mm | - | - | - |
* Rain latest hour (hover to see other rain measurements)
** Current wind speed in m/s (hover to see current wind gust speed)